Location: Andrea Ville Subdivision
(14.3485°N, 120.9580°E)
Time: 15:11:47
(UTC+00:00)

Ariane H10+ - Visible Passes

Search period start: 19 April 2026 00:00
Search period end: 29 April 2026 00:00
Orbit: 305 x 20640 km, 6.4° (Epoch: 18 April)

Date Brightness Start Highest point End Pass type
(mag) Time Alt. Az. Time Alt. Az. Time Alt. Az.
19 Apr 6.9 20:34:08 18° WSW 21:54:32 78° SSE 01:35:13 10° E visible
20 Apr 7.0 20:45:18 15° WSW 22:27:09 79° S 01:47:53 10° ESE visible
21 Apr 7.1 20:56:24 11° WSW 23:05:08 80° S 02:00:24 10° ESE visible
22 Apr 7.5 15:04:42 12° ESE 15:04:42 12° ESE 15:07:17 10° E visible
22 Apr 7.1 21:08:11 10° WSW 23:44:10 80° S 02:12:46 10° ESE visible
23 Apr 7.4 15:15:44 15° ESE 15:15:44 15° ESE 15:24:00 10° E visible
24 Apr 7.3 15:26:42 19° ESE 15:26:42 19° ESE 15:41:51 10° E visible
25 Apr 7.2 15:37:37 22° ESE 15:37:37 22° ESE 16:01:20 10° E visible
26 Apr 7.1 15:48:29 26° ESE 15:48:29 26° ESE 16:23:19 10° E visible
27 Apr 7.0 15:59:19 30° ESE 15:59:19 30° ESE 16:49:29 10° E visible
28 Apr 6.9 16:10:05 34° ESE 16:10:05 34° ESE 17:23:37 10° E visible
